RH
68 70 72 74 77 79 82 83 85 88 89 90 90 91 90 86 86 90 86 84 85 83 81 78 78 79 78 75 72 70 71 69 65 64 62 60 61 59 56 53 49 47 47 47 47 47 47 48 48 47 45 46 46 45 43 41 41 40 40 41 39 39 40 40 40 39 39 39 40 41 43 45 46 46 45 45 45 43 43 40 41 49 52 50 51 50 50 52 55 57 57 55 52 50 47 45 44
70 76 77 78 79 82 85 85 86 89 92 93 91 91 88 85 88 89 86 85 84 81 78 76 76 77 77 76 70 69 72 70 64 63 61 58 60 58 54 51 46 44 45 45 45 45 46 47 46 46 47 47 47 46 43 41 42 42 43 42 40 38 39 40 40 40 41 42 43 45 47 47 47 47 46 46 45 44 43 41 47 55 53 51 53 52 52 54 56 58 59 57 54 50 46 43 41
76 78 77 79 81 84 86 87 90 91 94 96 93 90 85 87 89 85 86 87 83 79 76 75 75 77 77 74 70 71 72 71 66 61 61 59 57 56 51 46 43 42 42 43 44 43 44 45 44 45 46 46 45 46 43 42 43 43 44 41 38 39 40 40 40 40 42 45 47 49 50 50 50 49 48 47 47 46 43 44 52 56 54 54 54 56 56 55 56 58 59 59 56 50 45 42 41
78 78 78 79 81 83 85 89 92 91 94 96 93 91 85 87 87 84 87 85 83 80 76 76 75 76 75 72 69 70 69 70 69 62 61 59 55 52 47 44 42 40 41 42 41 41 42 42 41 42 43 43 43 43 41 42 43 43 42 39 39 42 42 42 43 44 46 48 49 50 52 52 52 51 50 50 49 47 42 46 54 55 55 55 56 58 58 55 56 57 56 56 54 47 42 40 39
77 77 79 78 80 85 86 90 93 92 94 94 93 91 87 85 86 86 87 82 80 81 77 76 76 75 72 68 67 67 67 67 66 62 60 57 54 48 42 43 41 39 40 40 39 39 39 39 39 40 41 41 41 41 40 41 39 38 36 37 41 44 45 46 47 48 49 50 50 51 51 52 53 53 52 52 51 48 43 47 54 54 54 55 56 57 56 56 55 56 55 53 50 45 40 37 35
76 76 77 76 80 84 88 90 92 94 93 93 91 90 88 83 84 86 85 78 77 81 78 76 75 73 70 66 67 66 65 62 62 63 59 54 51 45 40 41 41 39 38 37 37 37 37 39 40 40 40 39 38 38 37 35 34 33 34 39 45 48 48 49 50 50 49 49 50 50 51 53 54 54 54 54 53 48 43 48 54 54 54 54 55 56 56 56 55 55 55 53 49 44 40 37 38
76 77 77 78 83 86 90 92 92 95 93 91 88 88 88 82 84 84 80 77 79 82 78 75 73 70 67 65 64 64 64 63 62 61 58 54 49 43 40 41 42 39 35 34 34 33 33 34 35 36 35 35 35 34 33 31 32 35 39 44 48 49 49 49 49 49 49 49 50 51 52 54 54 56 56 56 56 49 44 51 55 55 55 55 56 56 56 56 55 55 55 52 47 43 40 41 44
76 79 80 81 88 91 92 93 92 93 92 89 86 87 88 83 85 84 82 83 85 85 77 74 72 66 65 64 62 63 64 64 62 59 57 54 48 44 42 42 40 37 33 32 29 28 27 25 26 28 30 32 34 34 34 35 37 40 44 46 47 46 45 45 46 47 48 50 51 53 54 54 54 56 57 57 57 50 45 52 57 56 56 56 56 56 56 55 55 55 53 48 43 42 43 45 47
78 81 84 86 91 92 93 93 89 89 88 88 87 88 87 84 87 87 85 86 85 85 77 74 70 65 65 64 62 63 63 63 61 60 58 53 49 47 45 41 35 32 31 27 25 23 22 23 26 29 31 34 37 38 39 41 43 44 45 45 44 43 43 44 46 48 49 50 50 52 53 53 54 55 56 56 56 50 45 51 57 57 56 56 57 57 55 55 54 54 51 46 42 41 43 46 48
80 81 85 89 90 91 91 90 87 87 86 85 87 88 86 85 87 87 86 84 83 83 77 74 70 65 66 64 62 63 63 62 60 59 57 52 51 48 46 40 33 29 27 23 22 20 21 27 31 33 36 38 41 42 43 45 44 44 43 42 42 41 42 46 50 51 50 50 49 50 50 51 53 53 54 55 55 50 46 49 54 56 55 56 58 57 55 55 53 53 50 48 44 42 44 46 48
81 84 84 88 89 90 90 87 86 87 84 85 89 88 86 87 88 86 86 85 82 79 75 74 69 65 65 64 64 64 63 62 60 59 56 53 51 49 46 40 31 27 25 23 23 21 23 30 33 36 38 42 44 45 45 45 43 42 42 41 42 41 44 49 51 50 49 50 49 50 50 51 51 53 54 54 55 52 48 48 52 54 54 54 55 54 55 54 52 51 50 49 47 44 44 44 47
82 87 86 88 89 89 90 88 86 86 85 87 91 88 85 86 87 86 86 85 81 77 75 72 68 65 65 65 66 63 61 61 60 59 57 55 52 49 46 37 28 25 25 24 24 24 27 31 35 39 40 43 45 45 45 43 42 42 44 44 44 44 46 50 50 48 48 49 50 51 51 51 51 52 52 52 54 52 48 49 51 54 54 53 51 51 52 52 51 50 49 48 47 45 42 42 46
81 88 88 88 88 89 90 87 86 86 87 90 91 86 83 84 84 85 85 82 80 79 76 70 68 66 66 66 66 63 61 59 58 60 58 55 52 49 45 35 27 25 26 25 26 28 28 31 35 38 40 42 44 45 43 42 42 44 46 46 46 46 47 48 48 48 48 49 51 51 52 51 51 51 50 50 52 52 51 51 52 54 54 53 51 51 51 51 50 50 49 48 47 44 40 39 41
77 85 86 87 86 88 88 88 88 86 87 89 89 85 82 84 83 83 84 83 82 81 75 70 69 68 65 66 65 63 62 59 57 59 58 56 53 50 45 37 28 27 28 28 28 29 29 31 35 37 39 41 42 43 42 41 42 45 46 47 47 47 47 46 46 47 48 50 50 51 51 51 51 51 50 51 51 52 51 51 52 53 54 53 52 51 51 51 51 50 50 48 45 43 40 37 37
75 81 83 86 85 86 86 87 88 87 87 86 88 85 83 84 83 85 85 85 84 79 73 70 71 69 65 64 64 62 60 59 57 57 56 55 52 49 46 40 33 31 31 29 28 28 29 31 35 37 38 39 40 40 41 43 43 44 46 48 48 47 47 46 47 48 48 49 49 50 51 51 52 51 52 52 52 50 50 51 51 52 51 51 50 50 49 50 51 50 49 46 44 42 40 39 39
73 78 84 86 83 86 86 85 86 89 87 88 88 84 85 86 85 87 84 83 82 77 72 71 71 70 67 64 64 61 60 59 56 55 55 53 50 47 45 42 37 33 32 30 29 28 28 30 35 36 36 36 36 38 42 44 44 44 46 48 50 49 48 47 47 47 47 49 50 52 52 52 51 51 52 52 52 50 49 50 50 50 49 48 48 47 48 48 49 47 46 44 42 41 42 45 46
71 77 83 85 84 86 84 81 85 89 87 88 88 82 85 88 86 87 83 82 82 77 74 72 72 70 67 67 67 64 60 58 55 54 54 51 49 45 44 45 40 35 34 33 32 29 28 31 35 35 34 34 35 38 42 43 43 43 45 48 49 49 47 46 44 45 47 49 50 50 49 49 49 49 50 50 50 50 50 50 50 49 47 47 47 47 48 48 47 46 45 42 40 41 44 48 50
73 78 80 82 83 83 80 78 80 82 84 86 88 85 86 87 86 85 82 83 81 77 75 72 72 70 68 68 68 66 60 57 54 54 54 50 48 45 44 46 42 39 38 38 37 30 28 30 33 33 32 33 35 39 41 42 42 42 44 46 46 44 44 43 44 46 48 49 48 47 45 43 42 45 47 48 48 49 50 50 49 48 47 47 47 47 47 47 45 44 44 44 44 46 47 49 51
70 72 76 79 78 77 76 78 79 79 82 85 87 85 86 87 84 81 79 82 80 78 77 74 73 72 70 69 67 66 61 57 56 54 53 51 50 46 44 44 43 43 42 43 41 32 29 30 31 32 32 34 37 37 38 39 40 42 43 42 41 40 43 45 48 50 50 49 49 46 43 39 37 40 45 47 47 48 48 48 48 47 47 47 47 46 46 47 46 46 49 50 51 52 54 54 55
66 69 73 76 76 75 76 77 79 79 80 84 87 85 87 88 82 80 80 80 79 77 76 73 72 71 70 68 65 63 60 58 57 54 53 52 51 47 43 43 43 42 43 45 42 34 32 34 35 36 36 38 38 35 35 36 39 41 40 38 39 41 46 48 50 51 49 47 45 43 40 38 35 36 40 43 43 43 44 45 46 45 45 46 47 47 48 49 49 50 51 52 52 53 56 57 59
63 69 69 71 74 77 77 75 76 79 82 87 88 86 87 85 79 81 81 79 79 76 76 74 70 70 69 66 63 61 58 57 57 54 53 53 51 48 43 43 43 42 43 46 43 35 35 39 43 42 41 41 38 34 33 35 38 38 37 40 42 45 48 50 49 48 46 44 42 40 38 36 34 34 34 36 38 40 42 43 43 42 42 43 45 47 47 48 49 49 48 49 49 50 52 55 59
58 65 63 64 71 76 76 73 75 79 85 88 87 85 84 82 82 83 81 81 81 77 77 75 71 71 68 64 60 58 57 56 56 54 54 54 52 48 44 42 42 42 44 48 44 36 37 43 46 46 44 42 38 36 35 37 38 35 37 44 46 46 49 53 51 47 44 44 44 42 41 41 39 38 38 40 42 44 44 44 43 42 41 41 44 45 44 43 44 45 44 45 45 49 52 53 55
55 60 60 62 68 72 71 69 73 77 83 88 87 85 82 84 85 83 83 83 82 79 79 77 74 73 68 64 60 56 56 56 55 54 54 55 52 48 45 41 41 43 44 47 45 39 41 44 45 47 46 43 40 36 36 36 36 35 39 44 46 46 50 55 54 49 45 45 46 45 47 48 47 45 45 46 47 46 45 45 45 44 43 43 44 45 43 41 40 41 43 45 46 50 54 52 53
53 55 56 61 65 66 63 62 68 75 81 83 82 83 83 85 84 82 83 81 79 79 80 76 75 74 69 65 61 56 55 55 55 55 55 55 53 49 45 42 40 42 42 44 46 42 42 43 42 46 48 45 41 37 35 33 34 37 41 45 47 47 51 57 56 52 49 46 45 46 49 52 52 52 51 50 49 50 50 49 48 47 46 45 44 44 43 42 44 47 46 47 49 50 51 50 50
51 52 51 54 59 59 58 60 65 74 81 79 79 83 84 84 82 83 83 79 77 77 78 77 75 74 70 66 61 57 55 56 55 54 54 54 53 49 46 44 39 41 42 42 45 44 41 41 41 45 48 46 42 39 35 32 36 40 43 47 49 50 54 57 56 53 51 49 47 46 49 51 50 52 53 52 51 52 52 50 49 48 48 47 45 44 44 44 49 52 46 47 50 50 50 50 49
47 49 47 49 55 55 57 61 63 71 80 80 80 85 86 83 80 82 83 79 78 76 76 77 74 71 69 66 61 58 57 56 56 54 53 52 51 48 46 44 40 38 41 41 43 45 42 39 40 43 47 46 43 39 35 36 40 41 42 46 49 52 53 54 55 53 50 51 51 49 49 50 50 51 52 51 50 51 50 49 48 49 51 50 48 47 47 45 48 48 45 47 48 49 50 48 46
39 42 42 43 50 52 53 59 62 69 76 77 80 84 84 82 80 81 81 79 78 78 77 76 72 69 68 67 64 61 59 58 56 54 53 51 49 48 46 44 41 37 39 40 41 44 43 38 37 42 46 44 42 39 37 40 41 39 39 43 48 50 48 49 52 52 50 51 52 51 50 49 50 50 50 49 49 49 50 50 50 52 52 51 49 48 49 46 46 45 44 48 47 47 48 45 44
31 33 34 34 42 48 52 55 57 64 71 74 78 81 80 82 83 81 80 77 77 79 78 77 73 68 67 68 67 65 62 60 57 53 52 50 48 48 46 44 42 37 37 39 40 44 43 37 37 42 43 42 41 40 40 40 39 37 38 42 47 46 44 47 49 50 50 51 52 54 53 50 48 49 49 48 47 47 47 48 49 51 51 50 48 46 47 45 45 44 44 47 48 47 46 44 44
27 29 29 31 35 42 50 51 51 56 65 70 72 77 80 83 82 79 77 75 76 78 76 76 73 66 63 65 67 67 66 64 58 54 53 51 50 49 47 45 42 39 37 37 39 43 43 37 37 42 42 41 40 40 40 39 38 36 38 43 46 44 45 48 47 45 46 49 51 52 52 50 47 46 48 48 47 46 47 46 45 46 49 50 48 45 44 44 43 45 45 47 48 47 47 46 46
24 26 26 29 32 34 39 41 44 49 56 61 63 71 78 80 77 75 75 74 75 77 75 73 72 67 63 63 66 67 67 65 58 54 54 53 52 50 47 45 43 40 37 36 38 43 43 39 38 41 42 41 39 40 39 37 37 36 39 45 46 44 47 48 45 43 43 45 48 49 48 49 47 45 46 47 47 46 46 46 45 45 47 50 51 48 45 43 43 46 46 47 48 47 47 46 45
21 23 24 26 28 29 30 32 39 46 51 53 55 64 70 71 73 72 74 73 73 76 74 71 70 69 65 63 65 67 66 64 59 54 54 54 54 52 47 45 42 40 38 36 37 40 41 40 39 40 40 40 39 39 38 36 35 35 39 44 46 46 49 49 43 42 43 42 44 46 46 47 46 44 45 46 46 46 45 46 47 47 46 49 51 50 47 45 44 46 47 48 49 48 45 43 42
18 20 22 24 25 26 27 29 34 42 48 48 50 59 63 64 68 72 72 71 73 76 74 69 68 70 67 63 63 66 67 66 61 55 54 56 56 53 47 44 43 40 39 37 36 37 39 41 40 37 38 38 39 39 38 35 34 34 37 41 45 47 50 49 43 42 42 38 40 44 44 43 43 44 45 46 47 47 46 47 47 46 47 51 51 49 49 47 45 45 47 49 50 49 47 42 41
15 16 19 21 23 25 26 28 30 37 45 46 49 57 61 61 64 70 71 69 73 75 73 69 69 69 66 62 61 62 66 66 62 56 56 57 57 53 47 44 43 40 39 38 37 34 36 41 40 37 36 37 38 38 37 35 34 34 35 38 44 47 49 47 43 42 40 35 37 41 42 41 43 46 47 48 48 47 47 47 45 45 48 51 50 48 48 47 46 46 48 51 52 51 49 44 40
14 13 15 16 19 23 25 27 29 38 44 44 48 55 57 59 61 68 70 70 73 75 72 69 70 69 65 63 61 60 64 65 60 56 56 58 57 54 49 46 43 41 39 39 38 35 34 39 41 38 34 36 39 38 36 35 35 36 35 37 41 45 48 47 44 43 38 34 35 37 39 41 43 46 48 48 48 48 47 45 44 47 52 52 51 48 45 44 44 45 48 51 52 53 50 45 42
14 13 14 15 16 19 22 27 32 40 45 44 48 55 57 58 60 64 66 67 72 73 71 70 70 69 67 65 61 59 60 62 60 56 56 58 57 55 52 47 44 41 40 39 40 38 33 35 40 38 33 36 39 37 35 33 34 35 35 35 38 43 46 45 45 43 38 34 34 34 37 40 42 44 48 49 49 49 46 43 45 50 55 55 53 49 45 43 43 44 47 49 50 52 50 46 46
13 13 14 14 15 17 17 24 32 38 47 49 50 56 58 58 61 64 64 65 68 69 68 70 71 69 67 66 63 60 58 59 58 57 58 58 56 57 53 49 46 42 40 40 41 40 33 31 37 38 33 33 37 37 35 32 33 34 35 35 36 41 44 43 43 42 39 37 34 34 35 38 39 39 45 49 49 48 45 44 47 51 55 55 53 50 48 46 45 44 46 48 50 52 53 49 49
15 15 14 12 13 15 14 20 31 37 47 52 54 59 59 58 61 63 63 62 63 66 66 68 69 69 67 65 64 62 59 60 57 55 58 58 56 56 53 50 48 43 41 41 40 40 35 29 33 37 33 30 33 34 33 32 32 32 34 35 35 40 44 42 42 41 40 39 35 34 35 37 37 37 41 47 49 47 46 47 48 50 52 51 50 50 50 49 48 46 48 50 49 51 53 50 47
15 16 15 13 12 13 14 18 27 37 45 50 55 60 57 55 59 60 59 58 59 62 65 67 69 70 67 64 65 64 63 63 59 55 58 58 56 56 53 50 48 44 42 41 39 38 35 30 30 33 32 29 28 30 31 29 29 29 31 33 33 38 43 42 41 41 40 40 37 35 35 36 37 39 42 47 49 47 48 50 49 49 49 47 47 49 52 52 50 49 49 49 49 51 53 51 49
14 14 15 14 13 12 14 17 23 31 38 44 51 53 49 50 54 56 57 56 57 58 61 66 69 70 68 65 65 66 65 63 59 56 58 58 55 54 52 49 47 45 43 42 40 37 35 32 30 30 30 28 25 26 28 25 25 26 28 29 31 36 41 41 40 40 40 40 37 36 37 37 38 40 42 44 47 45 46 49 48 47 46 46 48 51 53 52 50 48 48 48 48 50 51 51 51
16 14 14 14 13 12 13 16 22 27 31 37 46 50 51 53 54 53 52 53 55 57 60 64 67 68 66 64 64 64 66 65 60 58 58 57 55 54 51 48 46 45 44 43 40 38 35 31 29 28 28 27 23 22 24 23 23 24 25 27 30 35 38 39 39 39 40 39 35 35 36 36 36 39 40 42 44 43 42 45 46 43 43 46 47 49 52 52 51 50 48 48 49 49 48 47 47
18 16 15 14 13 12 13 17 20 24 26 31 42 54 59 58 55 54 52 52 54 56 61 64 66 67 66 64 63 63 65 65 61 59 58 56 55 54 50 46 44 43 44 44 41 39 37 31 28 28 27 26 22 20 21 21 22 24 27 28 29 32 36 37 36 37 40 37 32 32 32 32 33 35 37 39 43 45 43 45 45 42 42 47 49 49 51 52 52 51 50 49 50 51 49 43 41
18 18 17 15 13 12 13 17 18 21 24 27 39 55 63 59 53 52 52 51 50 54 60 63 65 67 66 64 62 63 64 64 63 62 60 56 55 54 49 44 41 41 42 42 41 41 39 33 27 27 27 26 22 21 20 19 21 23 27 30 30 30 32 34 33 35 38 36 31 30 30 30 30 31 34 36 41 45 46 47 46 43 43 48 55 55 52 52 51 50 50 50 50 52 52 45 40
17 18 18 16 14 11 11 15 16 19 23 25 28 37 51 60 55 50 51 49 49 52 55 60 65 67 66 64 61 62 63 63 64 65 62 59 55 54 52 45 40 39 40 41 42 42 40 34 28 26 27 26 22 20 20 18 19 22 25 29 30 28 27 29 30 32 37 37 32 28 28 29 29 29 31 33 37 41 44 48 47 46 45 47 52 53 52 52 50 48 48 48 48 51 54 50 42
18 17 18 17 16 13 11 12 14 16 18 23 23 22 37 55 54 49 50 50 51 52 52 58 64 65 63 62 59 60 62 61 61 62 62 60 56 53 52 47 39 38 39 40 41 42 40 36 30 28 27 26 22 19 19 19 17 19 22 26 29 28 26 27 27 29 34 35 32 28 26 27 27 28 30 31 33 35 40 44 46 44 42 40 43 47 50 53 49 44 44 45 46 47 51 52 47
18 18 17 18 18 16 13 11 14 17 17 20 23 20 28 43 47 48 49 49 51 50 50 55 60 63 62 60 58 58 59 59 59 59 60 60 57 54 52 48 41 38 38 38 39 40 40 37 33 30 28 26 22 19 19 19 17 18 19 23 27 28 26 25 24 27 30 32 33 33 28 26 25 26 29 31 31 31 35 38 39 39 37 34 36 42 47 49 45 42 43 46 48 45 44 48 49
18 18 17 17 17 17 15 13 13 17 19 20 21 20 24 32 42 50 51 50 48 44 43 47 52 58 60 60 59 57 57 57 57 59 59 59 58 56 55 50 44 39 38 37 37 38 40 39 37 33 31 28 23 20 19 19 18 18 18 20 25 27 27 25 24 26 28 28 31 34 30 26 25 25 29 31 31 30 32 34 35 35 34 34 35 39 43 44 42 40 42 46 48 46 42 44 47
17 17 17 16 18 18 17 16 15 17 20 20 19 19 20 25 38 51 51 45 41 40 40 43 48 52 55 59 60 57 56 57 58 60 59 60 59 57 56 52 46 42 40 37 36 37 39 40 39 36 34 30 25 21 20 18 18 18 17 18 21 25 27 26 25 26 27 27 28 30 30 29 27 26 27 29 29 29 30 31 32 34 34 34 34 37 40 40 40 40 41 42 45 45 43 43 45
17 17 17 17 18 19 18 18 17 21 22 18 15 17 18 20 27 38 42 38 36 38 38 40 46 47 49 55 58 56 57 59 61 61 59 60 59 57 57 55 50 45 42 38 36 36 37 39 39 38 35 33 28 23 21 19 17 18 17 17 19 21 24 24 24 25 26 27 26 27 29 30 29 27 26 27 27 26 28 29 30 32 33 33 33 35 38 38 39 39 38 39 40 42 43 43 44
16 16 17 19 20 19 21 21 19 22 22 16 12 12 14 15 16 22 31 34 32 33 33 35 41 45 47 50 51 52 55 60 63 61 59 59 58 57 56 55 52 48 45 41 37 37 37 38 38 37 36 33 30 25 22 20 16 17 17 17 18 18 19 20 21 23 25 26 26 26 27 28 28 28 26 26 26 25 26 27 28 29 31 32 32 33 35 37 39 39 37 37 38 40 42 43 44
17 18 18 20 20 20 22 23 21 21 21 16 13 12 11 11 11 15 21 27 31 32 31 33 37 42 47 49 48 49 52 57 60 59 58 58 58 57 56 55 51 49 47 43 39 38 38 37 38 37 36 34 32 28 24 21 17 16 16 16 16 16 16 16 17 19 20 23 25 25 25 24 23 24 24 23 24 24 24 25 26 27 28 30 32 32 32 34 38 40 39 37 38 40 43 43 43
17 17 19 20 18 19 22 22 22 22 20 17 16 16 14 11 10 10 12 18 27 32 29 29 34 38 43 48 48 47 48 52 57 58 57 56 57 58 57 55 52 48 47 43 41 40 39 39 37 38 36 34 33 30 26 22 18 15 15 15 15 15 15 14 14 15 15 17 20 21 21 20 18 19 21 21 21 22 23 23 25 25 26 28 31 32 30 29 33 38 38 36 36 37 40 41 41
19 17 17 19 17 17 19 20 20 19 20 22 21 20 16 13 12 10 8 9 15 23 25 26 29 33 38 44 47 46 45 48 53 57 57 55 55 57 56 56 52 49 47 44 42 40 40 40 39 38 38 35 33 31 26 23 19 16 15 15 15 14 15 15 15 14 14 14 15 16 16 17 16 15 17 20 20 20 22 24 24 24 25 25 27 29 29 28 29 33 34 34 34 35 35 36 38
22 21 18 17 15 15 18 20 19 19 22 25 24 24 22 19 17 14 12 10 8 14 22 23 25 29 33 38 43 45 45 46 49 53 56 55 54 55 56 56 54 50 48 46 43 41 40 40 39 39 39 38 35 32 28 24 21 19 16 14 14 14 14 15 15 14 14 13 14 14 14 14 15 14 15 17 18 19 22 25 25 23 23 23 23 25 26 26 27 28 30 31 32 34 34 33 33
22 24 23 20 18 17 18 22 23 23 26 26 23 25 27 26 23 19 17 16 12 12 19 23 25 29 32 33 37 42 45 46 49 52 55 56 55 53 54 55 55 52 49 46 44 43 42 40 39 39 39 38 36 34 32 28 24 21 19 16 14 14 13 14 14 14 14 13 14 13 13 13 14 14 14 14 15 17 21 25 25 24 23 22 22 23 24 24 25 26 28 28 28 31 32 32 31
19 22 25 27 29 28 25 24 24 26 28 28 24 23 25 28 27 23 20 21 19 16 20 24 27 31 34 32 33 36 39 43 49 53 56 56 54 52 53 54 55 53 49 47 45 43 41 39 39 38 38 38 38 37 35 32 27 24 21 19 16 14 13 12 13 14 14 14 14 14 13 12 12 13 14 14 14 14 17 22 23 23 22 21 21 23 24 24 24 25 26 26 26 27 29 31 31
21 21 23 27 33 36 35 29 26 26 28 28 26 22 23 27 28 26 24 23 23 23 25 27 29 31 33 32 33 33 35 42 51 55 57 57 54 52 51 54 56 54 50 48 47 44 41 38 37 37 37 38 39 38 36 33 30 26 24 22 20 17 15 13 12 13 13 13 13 13 13 13 11 12 13 15 15 14 14 17 20 21 22 20 21 23 24 24 25 25 25 26 25 25 26 29 31
33 30 28 30 32 32 35 33 27 26 28 28 28 26 23 21 22 26 27 26 24 25 29 32 31 29 29 31 34 33 34 44 51 51 52 54 55 53 50 53 57 56 52 50 48 46 42 39 36 35 35 36 36 36 35 33 32 30 27 25 22 20 18 16 13 12 12 13 13 12 13 13 12 11 12 15 16 17 16 16 18 19 20 20 20 22 23 23 24 24 25 25 25 24 24 26 29
39 36 32 34 35 33 36 38 31 28 29 28 27 27 26 24 24 25 27 27 25 24 28 34 34 30 28 30 32 30 31 38 43 43 44 49 52 51 49 51 56 56 54 52 50 47 44 41 38 36 33 33 33 34 33 33 32 32 30 27 24 22 21 19 17 14 13 12 12 12 12 13 12 11 11 12 14 17 18 19 20 19 18 18 19 20 21 21 21 21 22 23 23 23 23 24 26